User: anonymous   Login
Location: Skalnate Pleso
(49.1889°N, 20.2450°E)
Time: 11:48:29
(UTC+01:00)
Language:

Cosmos 2228 Rocket - Orbit

View from above orbital plane
View from above orbital plane
View from above satellite
View from above satellite

Ground track
Ground track

The orbit data is extracted from the following two-line orbital elements,

1 22287U 92094B   20029.12192608  .00000063  00000-0  54656-5 0  9997
2 22287  82.5236 266.7512 0026193  80.9889 279.4286 14.78137757459760
Epoch (UTC): 29 January 2020 02:55:34
Eccentricity: 0.0026193
inclination: 82.5236°
perigee height: 617 km
apogee height: 653 km
right ascension of ascending node: 266.7512°
argument of perigee: 80.9889°
revolutions per day: 14.78137757
mean anomaly at epoch: 279.4286°
orbit number at epoch: 45976

The dashed part of the orbit path shows where the satellite is in the earth's shadow,  

DLR